Weather reports worldwide

Advertisment
Walney Island, United Kingdom (3214): temperature & dewpoint: 17.09.2020 06:00:00 - 23.09.2020 06:00:00 (BST)Walney Island, United Kingdom (3214): temperature -20cm & temperature -100cm: 17.09.2020 06:00:00 - 23.09.2020 06:00:00 (BST)Walney Island, United Kingdom (3214): wind speed & gusts: 17.09.2020 06:00:00 - 23.09.2020 06:00:00 (BST)Walney Island, United Kingdom (3214): wind direction: 17.09.2020 06:00:00 - 23.09.2020 06:00:00 (BST)Walney Island, United Kingdom (3214): reduced air pressure: 17.09.2020 06:00:00 - 23.09.2020 06:00:00 (BST)Walney Island, United Kingdom (3214): visibility: 17.09.2020 06:00:00 - 23.09.2020 06:00:00 (BST)Walney Island, United Kingdom (3214): precipitation: 17.09.2020 06:00:00 - 23.09.2020 06:00:00 (BST)
Date & Time tt [°C] td [°C] tt -20cm [°C] tt -100cm [°C] ff [km/h] ff [kn] fx [km/h] fx [kn] dd ppp [hPa] vv [km] rr [mm]
23.09.2020 06:00:00 - - - - - - - - - - - -
23.09.2020 05:00:00 11,9 11,3 - - 13 7 - - NW 999,2 30 0,2
23.09.2020 04:00:00 12,0 11,3 - - 16 9 - - NW 999,5 4,5 0,2
23.09.2020 03:00:00 11,9 11,3 - - 9 5 - - NNW 999,6 30 0,4
23.09.2020 02:00:00 12,1 11,6 - - 11 6 - - NNW 1000,0 6 4,8
23.09.2020 01:00:00 14,4 13,8 - - 29 16 - - SW 999,8 7 0,8
23.09.2020 00:00:00 14,6 13,6 - - 22 12 - - SW 1000,0 16 0,0
22.09.2020 23:00:00 14,6 14,0 - - 22 12 46 25 SW 1000,2 13 0,6
22.09.2020 22:00:00 15,0 13,7 - - 28 15 - - SW 1000,7 11 0,0
22.09.2020 21:00:00 15,3 13,6 - - 28 15 50 27 SW 1001,2 18 0,0
22.09.2020 20:00:00 15,3 13,9 - - 24 13 - - SSW 1001,4 14 0,0
22.09.2020 19:00:00 15,0 14,0 - - 21 11 - - SSW 1001,9 18 0,0
22.09.2020 18:00:00 15,0 14,1 - - 21 11 - - SSW 1002,5 15 0,0
22.09.2020 17:00:00 15,4 13,7 - - 26 14 - - SSW 1003,3 29 0,0
22.09.2020 16:00:00 15,5 13,5 - - 26 14 - - SSW 1004,1 22 0,0
22.09.2020 15:00:00 15,5 13,1 - - 21 11 - - SW 1005,0 18 0,0
22.09.2020 14:00:00 15,4 13,0 - - 28 15 50 27 SW 1005,6 17 0,0
22.09.2020 13:00:00 15,1 13,1 - - 29 16 50 27 SW 1006,1 16 0,0
22.09.2020 12:00:00 14,9 13,6 - - 29 16 - - SSW 1006,5 8 0,0
22.09.2020 11:00:00 14,3 13,3 - - 18 10 - - SSE 1006,7 6 0,0
22.09.2020 10:00:00 14,3 13,6 15,2 15,5 15 8 - - SSE 1007,2 5 0,0
22.09.2020 09:00:00 13,3 12,9 - - 18 10 - - SE 1007,7 2,3 0,0
22.09.2020 08:00:00 13,7 13,0 - - 16 9 - - SSE 1008,3 3,3 0,0
22.09.2020 07:00:00 14,1 13,6 - - 15 8 - - SSE 1008,7 2,8 0,0
22.09.2020 06:00:00 14,3 13,5 - - 11 6 - - S 1009,5 4,9 0,0
22.09.2020 05:00:00 14,1 13,1 - - 9 5 - - S 1010,2 9 0,0
22.09.2020 04:00:00 14,2 13,6 - - 9 5 - - S 1011,1 10 0,0
22.09.2020 03:00:00 12,8 12,5 - - 8 4 - - S 1012,0 11 0,0
22.09.2020 02:00:00 12,5 12,3 - - 5 3 - - SSE 1012,7 7 0,0
22.09.2020 01:00:00 11,5 11,2 - - 8 4 - - SE 1013,2 6 0,0
22.09.2020 00:00:00 11,3 10,8 - - 5 3 - - SE 1013,8 5 0,0
21.09.2020 23:00:00 10,9 10,2 - - 2 1 - - ENE 1014,6 0,8 0,0
21.09.2020 22:00:00 12,2 11,1 - - 8 4 - - NNW 1014,9 7 0,0
21.09.2020 21:00:00 12,2 10,8 - - 8 4 - - WSW 1015,1 16 0,0
21.09.2020 20:00:00 13,8 12,1 - - 9 5 - - W 1015,3 23 0,0
21.09.2020 19:00:00 14,0 11,9 - - 9 5 - - WSW 1015,3 25 0,0
21.09.2020 18:00:00 15,2 12,3 - - 16 9 - - W 1015,8 20 0,0
21.09.2020 17:00:00 16,0 12,1 - - 11 6 - - W 1015,9 27 0,0
21.09.2020 16:00:00 16,7 13,0 - - 9 5 - - WSW 1016,6 26 0,0
21.09.2020 15:00:00 16,2 12,8 - - 11 6 - - W 1017,0 22 0,0
21.09.2020 14:00:00 16,4 12,6 - - 11 6 - - WSW 1017,2 30 0,0
21.09.2020 13:00:00 16,0 11,9 - - 11 6 - - WSW 1017,6 27 0,0
21.09.2020 12:00:00 15,9 12,7 - - 8 4 - - SSW 1017,6 16 0,0
21.09.2020 11:00:00 14,5 12,6 - - 9 5 - - SE 1018,0 14 0,0
21.09.2020 10:00:00 13,0 11,2 - - 15 8 - - ESE 1017,8 13 0,0
21.09.2020 09:00:00 11,2 9,9 - - 9 5 - - E 1018,3 21 0,0
21.09.2020 08:00:00 9,4 8,8 - - 9 5 - - ESE 1018,1 14 0,0
21.09.2020 07:00:00 8,2 7,6 - - 5 3 - - E 1018,4 8 0,0
21.09.2020 06:00:00 8,6 8,0 - - 5 3 - - E 1018,3 16 0,0
21.09.2020 05:00:00 8,2 7,5 - - 5 3 - - E 1018,6 21 0,0
21.09.2020 04:00:00 8,6 7,3 - - 5 3 - - ENE 1018,9 25 0,0
21.09.2020 03:00:00 9,9 8,6 - - 9 5 - - E 1019,6 40 0,0
21.09.2020 02:00:00 10,5 8,7 - - 11 6 - - ENE 1020,4 50 0,0
21.09.2020 01:00:00 10,7 9,1 - - 15 8 - - E 1020,4 50 0,0
21.09.2020 00:00:00 10,9 9,2 - - 13 7 - - ENE 1020,7 50 0,0
20.09.2020 23:00:00 12,1 9,7 - - 18 10 - - E 1020,8 50 0,0
20.09.2020 22:00:00 12,7 10,0 - - 18 10 - - E 1020,9 50 0,0
20.09.2020 21:00:00 13,3 10,4 - - 15 8 - - E 1021,2 50 0,0
20.09.2020 20:00:00 14,3 11,2 - - 15 8 - - SE 1021,5 50 0,0
20.09.2020 19:00:00 15,4 11,5 - - 16 9 - - SE 1021,1 30 0,0
20.09.2020 18:00:00 16,8 12,2 - - 4 2 - - W 1021,1 40 0,0
20.09.2020 17:00:00 18,2 11,9 - - 8 4 - - ENE 1021,5 50 0,0
20.09.2020 16:00:00 18,3 11,4 - - 15 8 - - E 1021,7 28 0,0
20.09.2020 15:00:00 18,2 11,4 - - 15 8 - - E 1021,7 35 0,0
20.09.2020 14:00:00 18,4 12,6 - - 15 8 - - ESE 1022,3 50 0,0
20.09.2020 13:00:00 17,6 11,7 - - 11 6 - - ESE 1022,9 45 0,0
20.09.2020 12:00:00 16,8 11,6 - - 9 5 - - NE 1023,3 50 0,0
20.09.2020 11:00:00 15,6 11,0 - - 18 10 - - E 1023,5 50 0,0
20.09.2020 10:00:00 14,6 11,2 - - 9 5 - - ENE 1023,5 45 0,0
20.09.2020 09:00:00 12,8 10,7 - - 8 4 - - ENE 1023,6 35 0,0
20.09.2020 08:00:00 9,9 9,0 - - 5 3 - - E 1023,5 50 0,0
20.09.2020 07:00:00 10,1 8,5 - - 9 5 - - E 1023,0 40 0,0
20.09.2020 06:00:00 11,0 9,0 - - 15 8 - - E 1022,5 50 0,0
20.09.2020 05:00:00 10,9 9,0 - - 15 8 - - NE 1022,7 50 0,0
20.09.2020 04:00:00 10,2 8,8 - - 13 7 - - NNE 1023,0 50 0,0
20.09.2020 03:00:00 10,1 8,6 - - 9 5 - - NNE 1023,6 50 0,0
20.09.2020 02:00:00 10,2 8,2 - - 8 4 - - ENE 1023,7 50 0,0
20.09.2020 01:00:00 11,0 8,5 - - 9 5 - - NNE 1023,7 50 0,0
20.09.2020 00:00:00 11,4 9,1 - - 15 8 - - ENE 1023,6 30 0,0
19.09.2020 23:00:00 10,6 8,3 - - 11 6 - - NE 1023,8 50 0,0
19.09.2020 22:00:00 11,6 8,7 - - 15 8 - - NE 1023,7 50 0,0
19.09.2020 21:00:00 11,6 8,3 - - 11 6 - - NNE 1023,1 45 0,0
19.09.2020 20:00:00 13,3 8,2 - - 11 6 - - NE 1022,6 45 0,0
19.09.2020 19:00:00 14,9 8,2 - - 13 7 - - NE 1021,7 50 0,0
19.09.2020 18:00:00 17,0 8,2 - - 18 10 - - E 1021,4 50 0,0
19.09.2020 17:00:00 17,8 8,9 - - 26 14 - - E 1021,5 35 0,0
19.09.2020 16:00:00 18,1 9,1 - - 26 14 - - E 1021,7 45 0,0
19.09.2020 15:00:00 17,9 8,8 - - 28 15 - - E 1022,0 30 0,0
19.09.2020 14:00:00 17,5 8,6 - - 26 14 - - ENE 1022,6 35 0,0
19.09.2020 13:00:00 17,0 8,8 - - 24 13 - - ENE 1023,1 35 0,0
19.09.2020 12:00:00 16,0 8,8 - - 24 13 - - E 1023,7 35 0,0
19.09.2020 11:00:00 15,0 8,5 - - 24 13 - - E 1024,1 40 0,0
19.09.2020 10:00:00 14,0 8,3 15,5 15,7 13 7 - - E 1024,3 45 0,0
19.09.2020 09:00:00 12,5 8,9 - - 8 4 - - ENE 1024,2 40 0,0
19.09.2020 08:00:00 10,4 7,8 - - 9 5 - - NE 1024,0 45 0,0
19.09.2020 07:00:00 8,4 6,2 - - 5 3 - - ENE 1023,8 45 0,0
19.09.2020 06:00:00 9,2 7,2 - - 11 6 - - NE 1023,4 45 0,0
19.09.2020 05:00:00 9,3 6,8 - - 8 4 - - N 1023,7 50 0,0
19.09.2020 04:00:00 10,2 7,3 - - 11 6 - - NNE 1024,0 50 0,0
19.09.2020 03:00:00 10,1 7,0 - - 9 5 - - N 1024,7 40 0,0
19.09.2020 02:00:00 11,0 7,8 - - 16 9 - - NE 1025,2 50 0,0
19.09.2020 01:00:00 10,7 8,1 - - 13 7 - - NNE 1025,4 50 0,0
19.09.2020 00:00:00 11,8 8,2 - - 22 12 - - ENE 1025,5 50 0,0
18.09.2020 23:00:00 11,2 8,1 - - 9 5 - - NE 1025,8 45 0,0
18.09.2020 22:00:00 11,5 8,1 - - 15 8 - - ENE 1025,5 50 0,0
18.09.2020 21:00:00 12,3 8,4 - - 15 8 - - ENE 1025,3 45 0,0
18.09.2020 20:00:00 13,6 9,3 - - 11 6 - - NE 1024,7 45 0,0
18.09.2020 19:00:00 15,4 9,7 - - 16 9 - - ENE 1024,4 30 0,0
18.09.2020 18:00:00 17,1 8,7 - - 13 7 - - ENE 1024,7 50 0,0
18.09.2020 17:00:00 17,6 8,0 - - 18 10 - - ENE 1024,9 35 0,0
18.09.2020 16:00:00 18,0 8,8 - - 16 9 - - ENE 1025,3 40 0,0
18.09.2020 15:00:00 17,8 9,4 - - 18 10 - - E 1026,1 50 0,0
18.09.2020 14:00:00 17,1 9,0 - - 15 8 - - E 1026,9 40 0,0
18.09.2020 13:00:00 15,5 8,1 - - 15 8 - - E 1027,2 45 0,0
18.09.2020 12:00:00 14,8 7,5 - - 13 7 - - ENE 1027,6 45 0,0
18.09.2020 11:00:00 13,4 8,1 - - 21 11 - - E 1027,9 40 0,0
18.09.2020 10:00:00 11,6 7,4 16,0 15,7 18 10 - - E 1028,2 35 0,0
18.09.2020 09:00:00 11,5 7,7 - - 16 9 - - E 1028,4 30 0,0
18.09.2020 08:00:00 10,2 7,7 - - 9 5 - - ENE 1028,3 45 0,0
18.09.2020 07:00:00 9,8 7,6 - - 11 6 - - ENE 1028,0 50 0,0
18.09.2020 06:00:00 10,4 7,9 - - 11 6 - - ENE 1028,0 35 0,0
18.09.2020 05:00:00 10,7 8,1 - - 13 7 - - E 1027,8 50 0,0
18.09.2020 04:00:00 10,7 8,1 - - 11 6 - - ENE 1028,1 45 0,0
18.09.2020 03:00:00 11,5 8,9 - - 11 6 - - ENE 1028,4 50 0,0
18.09.2020 02:00:00 11,7 9,5 - - 11 6 - - ENE 1028,6 29 0,0
18.09.2020 01:00:00 11,9 9,8 - - 9 5 - - ENE 1028,7 27 0,0
18.09.2020 00:00:00 12,6 10,4 - - 15 8 - - E 1028,9 25 0,0
17.09.2020 23:00:00 13,1 9,8 - - 18 10 - - E 1029,1 27 0,0
17.09.2020 22:00:00 13,6 9,1 - - 15 8 - - E 1029,0 16 0,0
17.09.2020 21:00:00 14,3 9,2 - - 13 7 - - E 1028,8 35 0,0
17.09.2020 20:00:00 15,1 10,2 - - 13 7 - - E 1028,5 35 0,0
17.09.2020 19:00:00 16,3 10,4 - - 11 6 - - ENE 1028,3 30 0,0
17.09.2020 18:00:00 17,8 10,8 - - 15 8 - - E 1028,5 35 0,0
17.09.2020 17:00:00 18,3 10,0 - - 16 9 - - E 1028,7 30 0,0
17.09.2020 16:00:00 18,6 10,8 - - 15 8 - - E 1028,9 35 0,0
17.09.2020 15:00:00 18,4 9,9 - - 15 8 - - E 1029,5 35 0,0
17.09.2020 14:00:00 17,6 9,5 - - 11 6 - - ENE 1030,4 23 0,0
17.09.2020 13:00:00 16,8 10,2 - - 15 8 - - SE 1030,7 27 0,0
17.09.2020 12:00:00 15,9 10,4 - - 16 9 - - SE 1030,7 18 0,0
17.09.2020 11:00:00 15,1 10,7 - - 16 9 - - ESE 1031,1 23 0,0
17.09.2020 10:00:00 13,8 8,7 16,4 15,7 22 12 - - E 1031,4 40 0,0
17.09.2020 09:00:00 12,7 8,3 - - 16 9 - - E 1031,5 25 0,0
17.09.2020 08:00:00 11,2 8,2 - - 8 4 - - NE 1031,9 35 0,0
17.09.2020 07:00:00 10,6 8,0 - - 11 6 - - NE 1031,5 35 0,0
17.09.2020 06:00:00 10,7 8,0 - - 11 6 - - ENE 1030,8 30 0,0

tt = temperature
td = dewpoint
tt -20cm = temperature -20cm
tt -100cm = temperature -100cm
ff = wind speed
fx = gusts
dd = wind direction
ppp = reduced air pressure
vv = visibility
rr = precipitation

Next stations